[[{"header":{"parameterUnit":"m.s-1","parameterCategory":1,"la1":30.2991,"la2":30.254,"lo1":-89.0895,"lo2":-89.0444,"dy":0.0017,"dx":0.0017,"nx":28,"ny":28,"refTime":"2025-03-23T21:00:00:Z","depth":0,"parameterNumber":2,"parameterNumberName":"U-component_of_WINDS"},"data":[0,0,0,0,0,0,0,0,0,0,0,0,0,0,0,0,0,0,0,0,0,0,0,0,0,0,0,0,0,0,0,0,0,0,0,0,0,0,0,0,0,0,0,0,0,0,0,0,0,0,0,0,0,0,0,0,0,0,-2.4982,-2.4982,0,-2.4978,-2.4978,-2.4978,-2.4951,-2.495,-2.495,-2.4949,-2.4945,-2.4945,-2.4946,0,0,0,0,0,0,0,0,0,0,0,0,0,-2.4967,-2.4968,-2.4982,-2.4982,-2.4982,-2.4978,-2.4978,-2.4978,-2.4951,-2.495,-2.4949,-2.4949,-2.4945,-2.4945,-2.4946,0,0,0,0,0,0,0,0,0,0,0,0,0,-2.497,-2.4968,-2.4982,-2.4968,-2.4967,-2.4978,-2.4978,-2.4978,-2.4951,-2.495,-2.4949,-2.4948,-2.4945,-2.4945,-2.4946,-2.4971,0,0,-2.4948,-2.4949,0,0,0,0,0,0,0,0,-2.497,-2.497,-2.497,-2.4969,-2.4968,-2.4964,-2.4971,-2.4976,-2.4951,-2.4957,-2.4949,-2.4948,-2.4952,-2.4952,-2.4954,-2.497,-2.497,-2.4948,-2.4949,-2.4949,-2.4949,0,0,0,0,0,0,0,-2.4969,-2.497,-2.4981,-2.497,-2.4969,-2.4962,-2.4962,-2.4972,-2.496,-2.4957,-2.4955,-2.4954,-2.4951,-2.4953,-2.4953,-2.497,-2.4948,-2.4949,-2.495,-2.495,-2.5007,-2.5008,0,0,0,0,0,0,-2.4971,-2.497,-2.4981,-2.498,-2.4966,-2.4963,-2.4962,-2.4966,-2.496,-2.4958,-2.4955,-2.4953,-2.4952,-2.4952,-2.4953,-2.4981,-2.4949,-2.495,-2.495,-2.5006,-2.5007,-2.5008,0,0,0,0,0,0,-2.4971,-2.4972,-2.4981,-2.4975,-2.4975,-2.4965,-2.4969,-2.4967,-2.4968,-2.4959,-2.4957,-2.4959,-2.4951,-2.4952,-2.4966,-2.498,-2.495,-2.4951,-2.5005,-2.5006,-2.5008,-2.5037,0,0,0,0,0,0,-2.4971,-2.4972,-2.4981,-2.4975,-2.4976,-2.4994,-2.497,-2.4967,-2.497,-2.4967,-2.4962,-2.496,-2.4951,-2.4965,-2.4967,-2.4981,-2.4952,-2.5003,-2.5006,-2.5007,-2.5035,-2.504,-2.5044,0,0,0,0,0,-2.497,-2.499,-2.4982,-2.4983,-2.4987,-2.4995,-2.4995,-2.4984,-2.4971,-2.498,-2.4974,-2.496,-2.4979,-2.4967,-2.4969,-2.4983,-2.5002,-2.5005,-2.5007,-2.5033,-2.5039,-2.5043,0,0,0,0,0,0,-2.4998,-2.4989,-2.498,-2.4998,-2.4998,-2.499,-2.5001,-2.499,-2.4993,-2.499,-2.4976,-2.4975,-2.4992,-2.4989,-2.4976,-2.5007,-2.4988,-2.4991,-2.5007,-2.5013,-2.5017,-2.5017,-2.4952,0,0,0,0,0,-2.5006,-2.5013,-2.5005,-2.5022,-2.5022,-2.5012,-2.5015,-2.5006,-2.5005,-2.5005,-2.5,-2.4999,-2.5005,-2.5009,-2.5014,-2.5035,-2.5033,-2.5046,-2.505,-2.5054,-2.5056,-2.5067,-2.5072,-2.5016,-2.5016,-2.5016,0,0,-2.5023,-2.5019,-2.5024,-2.5027,-2.5026,-2.5034,-2.5012,-2.5021,-2.5027,-2.5006,-2.5019,-2.5016,-2.5015,-2.5032,-2.504,-2.5031,-2.5071,-2.5057,-2.506,-2.506,-2.507,-2.5075,-2.508,-2.5018,-2.5018,-2.5017,0,0,-2.5057,-2.5055,-2.5069,-2.5068,-2.5066,-2.506,-2.5063,-2.5058,-2.5055,-2.5068,-2.5052,-2.5059,-2.507,-2.5069,-2.507,-2.5106,-2.5093,-2.5108,-2.513,-2.5141,-2.5145,-2.5149,-2.5161,-2.5165,-2.5111,-2.5111,-2.5111,0,-2.5078,-2.5089,-2.5077,-2.5088,-2.509,-2.5072,-2.5085,-2.5085,-2.5085,-2.5087,-2.5077,-2.5089,-2.5087,-2.5104,-2.5113,-2.5115,-2.5118,-2.5108,-2.5146,-2.5149,-2.5153,-2.5164,-2.5168,-2.5112,-2.5112,-2.5112,-2.5112,0,-2.5115,-2.5123,-2.5135,-2.5135,-2.5138,-2.515,-2.514,-2.5145,-2.5137,-2.5131,-2.5145,-2.5142,-2.5146,-2.515,-2.5141,-2.5166,-2.516,-2.5148,-2.5129,-2.516,-2.517,-2.5174,-2.5115,-2.5114,-2.5114,-2.5113,0,0,-2.5165,-2.516,-2.5164,-2.5164,-2.5161,-2.5167,-2.5179,-2.5182,-2.5187,-2.5188,-2.5197,-2.5206,-2.5195,-2.5197,-2.5188,-2.5198,-2.5226,-2.5185,-2.5184,-2.5192,-2.5252,-2.526,-2.5265,-2.5218,-2.5219,-2.522,-2.5252,0,-2.5198,-2.5216,-2.5206,-2.5227,-2.5234,-2.5218,-2.5228,-2.5228,-2.5223,-2.5229,-2.5224,-2.5231,-2.5216,-2.5217,-2.5226,-2.522,-2.5237,-2.5218,-2.5226,-2.5226,-2.5225,-2.5271,-2.5279,-2.531,-2.5256,-2.5257,-2.5257,0,-2.5237,-2.524,-2.5261,-2.5257,-2.526,-2.5269,-2.5272,-2.5278,-2.5277,-2.5273,-2.5275,-2.5265,-2.5276,-2.5259,-2.5274,-2.5261,-2.5264,-2.5262,-2.5263,-2.5262,-2.5242,-2.527,-2.5319,-2.5324,-2.5264,-2.5263,-2.5263,0,-2.527,-2.528,-2.5293,-2.5294,-2.529,-2.5297,-2.5295,-2.5294,-2.5297,-2.53,-2.5302,-2.5306,-2.5308,-2.5311,-2.5303,-2.5291,-2.5319,-2.5301,-2.5315,-2.5316,-2.5321,-2.532,-2.537,-2.5325,-2.5325,-2.5325,-2.5325,0,-2.5307,-2.532,-2.5308,-2.5316,-2.5331,-2.532,-2.5335,-2.5332,-2.5331,-2.5338,-2.5325,-2.5332,-2.5321,-2.5327,-2.5321,-2.5334,-2.5335,-2.5332,-2.533,-2.5333,-2.5333,-2.5333,-2.533,-2.5326,-2.5326,-2.5326,-2.5325,0,-2.5346,-2.5338,-2.5352,-2.5347,-2.5347,-2.5357,-2.5354,-2.5361,-2.5356,-2.5366,-2.5368,-2.536,-2.5367,-2.5359,-2.5365,-2.5361,-2.5379,-2.5374,-2.5378,-2.5377,-2.5391,-2.539,-2.5442,-2.5448,-2.54,-2.5401,-2.5401,0,-2.5369,-2.5378,-2.5375,-2.5379,-2.5379,-2.5386,-2.5389,-2.5379,-2.5383,-2.5383,-2.5391,-2.5396,-2.54,-2.5412,-2.5407,-2.5412,-2.5406,-2.5425,-2.5407,-2.5409,-2.5405,-2.5404,-2.5405,-2.5428,-2.5428,-2.5429,-2.5429,0,-2.541,-2.5406,-2.5411,-2.5415,-2.5419,-2.5421,-2.5423,-2.5427,-2.5417,-2.5422,-2.5429,-2.5432,-2.5438,-2.5444,-2.5448,-2.5446,-2.5436,-2.5435,-2.5438,-2.544,-2.5442,-2.544,-2.5387,-2.5433,-2.5433,-2.5433,-2.5432,-2.5432,-2.5441,-2.5449,-2.5448,-2.5454,-2.5454,-2.5456,-2.5463,-2.5459,-2.5465,-2.5469,-2.5463,-2.5471,-2.5471,-2.5475,-2.5475,-2.5481,-2.5474,-2.5479,-2.548,-2.5481,-2.5483,-2.5442,-2.5482,-2.5482,-2.5482,-2.5482,-2.5482,0,-2.548,-2.5479,-2.5485,-2.5488,-2.5493,-2.5483,-2.5485,-2.5489,-2.5497,-2.5497,-2.5502,-2.551,-2.5515,-2.5511,-2.5516,-2.5522,-2.5517,-2.5524,-2.5522,-2.5522,-2.549,-2.5486,-2.5527,-2.5527,-2.5527,-2.5527,-2.5527,-2.5527,-2.5502,-2.5514,-2.5511,-2.5524,-2.5522,-2.553,-2.5532,-2.5534,-2.5534,-2.5544,-2.5548,-2.5546,-2.5545,-2.5549,-2.5554,-2.5553,-2.5555,-2.5563,-2.556,-2.5529,-2.5525,-2.552,-2.5516,-2.5564,-2.5564,-2.5591,-2.5591,-2.5592]},{"header":{"parameterUnit":"m.s-1","parameterCategory":1,"la1":30.2991,"la2":30.254,"lo1":-89.0895,"lo2":-89.0444,"dy":0.0017,"dx":0.0017,"nx":28,"ny":28,"refTime":"2025-03-23T21:00:00:Z","depth":0,"parameterNumber":3,"parameterNumberName":"V-component_of_WINDS"},"data":[0,0,0,0,0,0,0,0,0,0,0,0,0,0,0,0,0,0,0,0,0,0,0,0,0,0,0,0,0,0,0,0,0,0,0,0,0,0,0,0,0,0,0,0,0,0,0,0,0,0,0,0,0,0,0,0,0,0,4.5761,4.5761,0,4.568,4.5679,4.5678,4.562,4.562,4.5619,4.5619,4.5532,4.553,4.5528,0,0,0,0,0,0,0,0,0,0,0,0,0,4.5868,4.5866,4.5762,4.576,4.5759,4.568,4.5679,4.5678,4.562,4.562,4.5619,4.5619,4.5532,4.553,4.5528,0,0,0,0,0,0,0,0,0,0,0,0,0,4.5807,4.5866,4.5762,4.5721,4.5717,4.568,4.5679,4.5677,4.562,4.562,4.5619,4.5619,4.5533,4.553,4.5527,4.5523,0,0,4.5519,4.5517,0,0,0,0,0,0,0,0,4.5811,4.5803,4.5728,4.5724,4.5719,4.566,4.5684,4.5626,4.5621,4.5657,4.5619,4.5618,4.5575,4.5568,4.5554,4.5519,4.5515,4.5518,4.5517,4.5515,4.5515,0,0,0,0,0,0,0,4.5815,4.5807,4.5729,4.5727,4.5722,4.5707,4.5698,4.5673,4.562,4.5654,4.5649,4.5641,4.5572,4.5557,4.5552,4.5514,4.5519,4.5516,4.5514,4.5513,4.5476,4.5476,0,0,0,0,0,0,4.5826,4.581,4.5732,4.5727,4.5764,4.5706,4.5696,4.5679,4.5621,4.5611,4.5641,4.5638,4.5562,4.5555,4.5548,4.5542,4.5516,4.5513,4.5511,4.5475,4.5476,4.5477,0,0,0,0,0,0,4.5828,4.5819,4.5735,4.5767,4.5756,4.5705,4.5687,4.5678,4.5663,4.5611,4.5601,4.5636,4.5562,4.5553,4.5531,4.5538,4.5512,4.5509,4.5474,4.5475,4.5476,4.5528,0,0,0,0,0,0,4.5832,4.5821,4.5818,4.5768,4.5754,4.5719,4.5687,4.5677,4.5659,4.5654,4.5604,4.5594,4.556,4.5536,4.5528,4.5534,4.5507,4.5473,4.5475,4.5476,4.5525,4.553,4.5535,0,0,0,0,0,4.5836,4.5834,4.5818,4.5809,4.575,4.5719,4.5711,4.5673,4.566,4.5657,4.5625,4.5596,4.5539,4.5534,4.5525,4.553,4.5473,4.5474,4.5476,4.5523,4.5529,4.5535,0,0,0,0,0,0,4.5883,4.5826,4.5808,4.579,4.576,4.571,4.5704,4.5681,4.5653,4.5649,4.5602,4.5591,4.5576,4.555,4.5546,4.5525,4.5503,4.5503,4.5541,4.5547,4.5552,4.5558,4.5504,0,0,0,0,0,4.5892,4.5872,4.5823,4.5812,4.5799,4.5755,4.574,4.5714,4.568,4.5667,4.5632,4.5601,4.5576,4.556,4.5534,4.5522,4.5511,4.5521,4.5526,4.5531,4.5531,4.5526,4.553,4.5482,4.5482,4.5482,0,0,4.5908,4.5875,4.5865,4.5821,4.5795,4.5776,4.5744,4.5724,4.571,4.5663,4.5642,4.5616,4.5578,4.5562,4.5554,4.5541,4.5542,4.5533,4.5536,4.5534,4.5528,4.5533,4.5537,4.5483,4.5483,4.5483,0,0,4.593,4.5902,4.5892,4.5868,4.583,4.5802,4.58,4.5754,4.5736,4.5714,4.568,4.5663,4.562,4.5595,4.5577,4.5597,4.557,4.559,4.5614,4.561,4.5614,4.5617,4.5626,4.5629,4.559,4.559,4.559,0,4.5955,4.5926,4.5889,4.5873,4.5856,4.5816,4.5806,4.5784,4.5739,4.5728,4.5715,4.5665,4.5635,4.5615,4.5621,4.5607,4.5604,4.5594,4.5617,4.562,4.5622,4.563,4.5633,4.5593,4.5593,4.5592,4.5592,0,4.596,4.5941,4.5937,4.5898,4.588,4.5867,4.5829,4.5816,4.5793,4.5767,4.5747,4.5713,4.5681,4.5674,4.565,4.5652,4.5646,4.5626,4.5602,4.563,4.5637,4.5639,4.5597,4.5596,4.5595,4.5594,0,0,4.6003,4.5949,4.5948,4.5932,4.589,4.5875,4.5862,4.5833,4.5824,4.5796,4.5784,4.5752,4.5735,4.5715,4.5688,4.5685,4.5706,4.5666,4.5664,4.5675,4.5709,4.5724,4.5728,4.5689,4.569,4.569,4.5713,0,4.6019,4.5994,4.5963,4.5948,4.5932,4.5897,4.5886,4.586,4.5836,4.5819,4.5793,4.5772,4.575,4.5738,4.5733,4.5704,4.5712,4.5702,4.5679,4.5678,4.5689,4.5731,4.5746,4.5768,4.5715,4.5715,4.5715,0,4.6031,4.6009,4.5994,4.5959,4.595,4.5941,4.5915,4.5899,4.587,4.5853,4.5834,4.5807,4.5793,4.5774,4.5755,4.5749,4.5738,4.5724,4.5724,4.5719,4.5698,4.5728,4.5774,4.5778,4.5719,4.5718,4.5718,0,4.6067,4.6033,4.602,4.6008,4.5965,4.596,4.5942,4.5913,4.5899,4.5877,4.5868,4.5843,4.5829,4.5812,4.578,4.5768,4.5765,4.5742,4.5752,4.5753,4.5751,4.5751,4.5796,4.5745,4.5744,4.5744,4.5744,0,4.6087,4.6079,4.6037,4.6029,4.602,4.5986,4.5979,4.5958,4.5933,4.5921,4.589,4.5879,4.5838,4.5823,4.5799,4.5788,4.5782,4.5769,4.5762,4.5771,4.5773,4.5763,4.576,4.5745,4.5745,4.5745,4.5745,0,4.6123,4.6094,4.6079,4.6043,4.6034,4.6029,4.5998,4.599,4.5967,4.5953,4.5948,4.5911,4.5893,4.5861,4.5832,4.5815,4.581,4.5799,4.5821,4.5817,4.5828,4.5828,4.5868,4.5872,4.5818,4.5818,4.5819,0,4.6137,4.6131,4.6096,4.6088,4.6072,4.6057,4.6045,4.6012,4.6,4.5971,4.5967,4.5947,4.5929,4.5902,4.5873,4.5852,4.584,4.5856,4.5836,4.5847,4.5841,4.5842,4.5842,4.5859,4.586,4.5861,4.5861,0,4.6166,4.6154,4.6137,4.6118,4.6105,4.6087,4.6068,4.6062,4.6026,4.6015,4.5997,4.5984,4.5958,4.5939,4.5915,4.5897,4.5874,4.5868,4.587,4.5878,4.5892,4.5886,4.5833,4.5867,4.5866,4.5866,4.5865,4.5865,4.6192,4.6187,4.6163,4.6147,4.6131,4.6115,4.6107,4.6085,4.607,4.6048,4.603,4.6015,4.599,4.5957,4.5941,4.5929,4.5917,4.5919,4.5919,4.592,4.5925,4.5895,4.5924,4.5924,4.5924,4.5924,4.5923,0,4.622,4.6205,4.6191,4.6167,4.6156,4.6138,4.6118,4.6109,4.6096,4.6077,4.6061,4.6044,4.6027,4.5999,4.598,4.5976,4.5966,4.5972,4.5972,4.5969,4.5935,4.5936,4.5982,4.5982,4.5982,4.5982,4.5982,4.5982,4.6233,4.6225,4.6211,4.6195,4.6179,4.6165,4.6155,4.6141,4.6126,4.6108,4.6095,4.6078,4.6056,4.6036,4.6021,4.6013,4.6008,4.6019,4.6008,4.5976,4.5971,4.5965,4.5966,4.6018,4.6018,4.6043,4.6043,4.6043]}]]